Powrót do katalogu

THORAD DELTA 1 DEB

AktywnyLEO
NORAD 8141·DEBRIS·🇺🇸 United States

Wystrzelony Nov 15, 1974 z Vandenberg Space Force Base

Loading…

Następne Przeloty (najbliższe 24 godziny)

TLE

ŚwieżeSource: Space-Track

Epoka: Sep 14, 2026, 22:25 UTC

1 08141U 74089K   26257.93438016  .00000010  00000-0  39899-3 0  9990
2 08141 101.3967  63.9917 0089670 259.3917 256.5588 12.36380762338555

Śledź THORAD DELTA 1 DEB w czasie rzeczywistym z AllMySat

Download on the App Store